STARLINK-34683, 64857

Orbit data source: Space-Track

STARLINK-34683, 64857 is a payload satellite owned by SpaceX/Seattle (US) in SSO that was launched on Sat, 19 Jul 2025 UTC via an FALCON 9 launch vehicle from the Air Force Western Test Range (AFWTR). Payload-class satellites include a variety of spacecraft equipped with specific instruments for various scientific and technological missions. These include communications satellites like Starlink; space stations such as the ISS; scientific satellites like the Hubble; Earth observation satellites from companies like Planet Labs, Umbra, and HawkEye 360; GPS; miniature CubeSats for education and research; and military/defense satellites.

Loading next visibility...
Identifier
64857, 2025-152R
Orbit
SSO
Country
Flag of USUS
Related business
Manufacturer
SpaceX/Seattle
Mission
Operational Commercial Communications
Bus & Motor
STARLINK V2MO, Unknown motor
Mass
575 kg wet, ~530 kg dry
Launch date (UTC)
2025-07-19 (9 months ago)
Launch vehicle
FALCON 9
Launch site
Air Force Western Test Range (AFWTR)
Object type
Payload
Rocket body
Debris
Shape & HBR
Box + 2 Pan, 17.7 m
Radar Cross Section
36.964 m², Large (>1 m²)

Expand to show TLE details & history
Last TLE update: 19 hours ago

TLE from 19 hours ago
0 STARLINK-34683
1 64857U 25152R   26094.57535897  .00005687  00000-0  39782-3 0  9993
2 64857  97.6016 311.0440 0002077  88.1667 271.9798 15.05667649 39314
Epoch: 2026-04-04T13:48Z
TLE epoch observation values (Epoch: 2026-04-04T13:48:31.015Z)
Latitude
0.00004°
Longitude
-88.9784°
Altitude
552.473 km
Speed
7.586 km/s
True Right ascension
20h 44m 10s
True Declination
0° 00' 00"
Sunlit
Object was in daylight at epoch
Visualization orbit readout
Latitude
Unknown
Longitude
Unknown
Altitude
Unknown
Speed
Unknown
Apparent Right ascension
Unknown
Apparent Declination
Unknown
Sunlit
N/A
Visualization observer readout
Local Sidereal Time
14:31:07
Azimuth
Unknown
Elevation
Unknown
Doppler factor
Unknown
Orbital elements
Apogee altitude
547.889 km
Perigee altitude
545.012 km
Semi-major axis
6,924.587 km
Eccentricity
0.00021
Inclination
97.6016°
RAAN
311.044°
Arg. of periapsis
88.1667°
True anomaly
271.95601°
Mean anomaly
271.9798°
Eccentric anomaly
271.96791°
Mean motion
3.76662 °/min
Orbital period
95.58 mins
BSTAR
0.00039782
Loading maneuver chart data...
Computing Atmospheric mass density...
Loading historical data...
Loading historical data...
Loading historical data...
Loading historical data...
Loading historical data...
Loading historical data...
Loading historical data...

Documentation

Showing up to 5 results
|